timestamp,gas_concentrations,,corrected_fluxes_and_quality_flags,,,,,,,,,,storage_terms,,,turbulence,,,footprint,,
ISOdate,CO2_1_1_1,H2O_1_1_1,Tau_1_1_1,QcTau_1_1_1,H_1_1_1,QcH_1_1_1,LE_1_1_1, QcLE_1_1_1,Fc_1_1_1, QcFc_1_1_1,E_1_1_1, QcE_1_1_1,Sa_1_1_1,Sw_1_1_1,Sc_1_1_1,ustar_1_1_1,MO_length_1_1_1,ZL_1_1_1,Fetchmax_1_1_1,Fetch70_1_1_1,Fetch90_1_1_1
yyyymmddHHMM,[µmol+1mol_a-1],[mmol+1mol_a-1],[kg+1m-1s-2],[#],[W+1m-2],[#],[W+1m-2],[#],[µmol+1s-1m-2],[#],[mmol+1s-1m-2],[#],[W+1m-2],[W+1m-2],[µmol+1s-1m-2],[m+1s-1],[m],[#],[m],[m],[m]
201805160030,413.76115623512254,5.7027173199644858,4.53550053867032704E-002,1,6.8359441976762430,0,14.909774176780118,0,0.73913097758715596,0,0.33736335400197254,0,-9999.,-9999.,-9999.,0.20094183491107637,-99.558709992564488,-0.21695741137679658,106.21927270975701,194.20270741292913,290.95104407120016
201805160100,413.75674992538262,5.7512304098817220,7.60983950198894019E-003,1,-1.5144029393054323,0,3.0082164207597852,0,7.42254720566506293E-002,1,6.80398464921237456E-002,0,-9.0728245103791956,1.6229097374001917,-3.33399311943122266E-003,8.22582805200605532E-002,30.825706162626428,0.70071387451905909,157.10601519725830,1427.0000000000000,6961.0000000000000
201805160130,413.06925452329546,5.5948129297313631,5.27922789208437170E-003,1,1.8275099653845885,1,-0.25543919111871677,2,8.31005230051634070E-002,2,-5.77535041345741094E-003,2,-8.6040588219181409,-5.2403558407344271,-0.52075817998306917,6.84740316854883097E-002,-14.731460662855946,-1.4662497151054721,227.59612602129877,667.00000000000000,1441.0000000000000
201805160200,413.73957926227581,5.6293196145325286,3.87241404880574666E-002,0,-40.170880303253803,0,13.009583530362187,0,1.3254302406385661,0,0.29398309912350096,0,-12.231379950998804,1.1586555597043771,0.50862222188304984,0.18529450366384359,13.278366939092745,1.6267060625058942,194.70346303728147,1613.0000000000000,7329.0000000000000
201805160230,415.19491595706717,5.6820451382983448,6.79734186160851073E-002,0,-34.944180477100289,0,8.3308064932023225,0,1.4205423730794795,0,0.18802505523791288,0,-28.117977254393935,1.7799673164603729,1.1088767640009034,0.24498566802577576,35.273626771621252,0.61235551818498812,106.49447413816223,194.70586339504771,291.70486341943820
201805160300,415.29565925607096,5.7863464684747967,5.75693543393715201E-002,0,-38.466944735234897,0,4.3920741086938619,0,1.4137286410779366,0,9.90651459253415745E-002,0,-14.761086543227332,3.5319325454364718,7.69466906122546340E-002,0.22518963501004624,24.888870027843740,0.86785780052833228,104.87863632693060,191.75159653107832,287.27883331930570
201805160330,417.14737464348292,6.0678260692341262,0.22514350783067125,0,-89.166460386455071,0,18.097043117254568,1,4.0544162834053497,1,0.40783155230034207,1,-20.188857305635903,9.5691958432847830,1.4186522569588751,0.44467388610773589,82.672570293882302,0.26127166390517292,110.67408957033619,202.34753342503356,303.15347761895350
201805160400,422.09382532892067,7.1996835854419432,0.37946368771993438,0,-38.488331632009668,1,-61.090660367108363,1,-0.77227926251802925,2,-1.3744972316660726,1,-37.887556549204731,38.775437230566098,3.8126564862454866,0.57567060672946679,415.68082812088966,5.19629449778670552E-002,105.09747769375018,192.15170834549863,287.87827372722592
201805160430,421.50568091311033,7.9679597720685882,0.37601791970344967,0,-85.854309380211802,0,-4.8405968509282973,1,7.2031319099450259,0,-0.10889815763021012,1,-2.5565192382275592,26.342261678455326,-0.45367127692147369,0.57292110853322864,183.76002854859149,0.11754460516035636,94.618900555680057,172.99352736633708,259.17582754278635
201805160500,420.76100262025426,8.4920283721504060,0.33500600589111357,0,-63.401861362022657,0,-9.1679470626525816,0,5.3210037375999324,0,-0.20621395815203314,0,-4.0820099031129331,17.986393368097804,-0.57487126877125494,0.54061452838846302,209.11052941531347,0.10329465503432561,102.10673442624766,186.68367580386152,279.68616457386656
201805160530,420.14840357442688,8.9874143875135228,0.16285455130178042,0,-49.015398305684514,0,-5.4558975835590822,2,3.2664822227974954,0,-0.12265013889836035,2,-13.206781566781348,17.049463644663241,-0.47396375320731804,0.37654659517569972,91.416853890209296,0.23628028181697633,96.187344194764435,175.86114256802540,263.47203766282149
201805160600,420.21012642834864,9.2929617658727057,0.19214573941252869,0,-61.377724028349121,0,-11.096595474662241,0,7.2166154149780297,0,-0.24931238286601229,0,-13.435440396051836,10.541549288724582,4.78438341269742801E-002,0.40865211217439107,93.305059259624016,0.23149870083568971,97.286399677932394,177.87056651702440,266.48252090340691
201805160630,419.83657872333970,9.4959018658210557,0.22655258929971853,0,-71.760545954921852,0,-2.2354599460889752,2,5.9436991911636312,0,-5.02054818616386872E-002,2,-9.2292846359183294,7.0144457592149445,-0.28997183095920098,0.44342964690909881,101.96745472040517,0.21183229550278779,97.138081494418074,177.59939357390178,266.07625442042928
201805160700,419.23792135934781,9.5530720198613697,0.25441127011344467,0,-59.806285372777182,0,0.10968894074090951,1,5.0917948664257029,0,2.46361071010645300E-003,1,1.3580330808054162,1.9754291292145802,-0.46460048737755422,0.46996692898341264,145.65340206809270,0.14829725700400764,90.429956150663003,165.33480099867080,247.70165984135403
201805160730,418.99592709523722,9.4643213511227700,0.31292403451512074,0,-68.759274861308086,0,6.4043776706417308,0,5.6391609081709957,0,0.14385365201027001,0,1.8850418981118948,-3.0646291008179833,-0.18769612919536388,0.52135892912298420,172.92197196400249,0.12491183020106036,94.061539650684992,171.97449387086277,257.64912967435055
201805160800,419.29079291175748,9.3883107752721546,0.30071146968393264,0,-65.625578631978840,0,6.9062756692532252,0,4.8286416849070299,0,0.15508680205989919,0,-6.1417521853967116,-2.6271692859711724,0.22885973716359245,0.51090332285294937,170.45978217319993,0.12671610701727157,93.618952768922611,171.16530389515506,256.43681563702097
201805160830,420.36753696485499,9.3404441984517916,0.44667588824700005,0,-56.006376191052283,0,8.0166176253714241,0,4.7994216730075827,0,0.17993967971344491,0,-10.624477553386392,-1.6576901532691588,0.83698802303235553,0.62219303296975859,360.72166871512832,5.98799625121996942E-002,106.82268952572292,195.30594580243758,292.60389621503975
201805160900,421.00259380279761,9.2706676892000175,0.35534589164993013,0,-67.048016373510208,0,9.8658829488293573,0,4.7941273954368437,0,0.22135525693130803,0,-9.9218209988023034,-2.4212366628212560,0.49441823620969044,0.55451235539526400,213.29433934142406,0.10126851029752128,100.27006383103397,183.32565617976883,274.65523926568369
201805160930,421.17733864796685,9.2138080285862447,0.42950545866859147,0,-61.822632249029965,0,9.4172924076451228,0,4.2764856972835261,0,0.21125344022026638,0,-4.1572081389653768,-1.9744892797768527,0.13612334883939362,0.60945557363786085,307.10080173070008,7.03352120159597277E-002,101.28217415335827,185.17611664500885,277.42756624065879
201805161000,421.81520808932686,9.2305086455481629,0.56143343740030816,0,-68.647946262145652,0,3.1500267442469543,0,6.1607930521970742,0,7.06483647596708175E-002,0,-4.9100138332406589,0.58043250425884085,0.49720888338616459,0.69657648111698667,412.89913819730435,5.23130178820533503E-002,110.80995093957320,202.59593133876010,303.52562295774209
201805161030,422.48717498906421,9.3121641591532640,0.29951252404537471,0,-52.587853308749871,0,1.1776662195140688,1,4.5195873342826962,0,2.64067431495115836E-002,1,-5.2099609120578538,2.8409650269478210,0.52422880042100672,0.50857023059017414,209.77210295303138,0.10296888716816796,90.060475970395132,164.65927338948160,246.68959638554131
201805161100,423.14668934800028,9.3937168635374917,0.42057954831951466,0,-46.465178904196080,0,1.3919078448881017,0,2.7497301624669852,0,3.12070948151522282E-002,0,-2.7240526785814407,2.8392709129437463,0.51479649259005567,0.60249725513971542,394.78656466120549,5.47131081285314319E-002,103.07012388785202,188.44505899698393,282.32503756320529
201805161130,423.21923496111242,9.4488623329963559,0.44947965621783031,0,-47.043829561959129,0,12.076919121150222,0,2.6400217310067928,0,0.27083993108240567,0,6.2159973793088801,1.9174953947907771,5.65707821738694397E-002,0.62316881164345994,431.45630985973781,5.00630063957621732E-002,103.70150336862568,189.59942205599543,284.05448377809500
201805161200,422.54258279576442,9.4325352917595087,0.40131531630056017,0,-29.155343223028861,0,31.106336005478617,0,2.3242410312346165,0,0.69814032786992086,0,18.383706972028612,-0.56566821190166772,-0.52615490938490694,0.58966947998454611,589.84688298656511,3.66196730423206870E-002,104.77023223812954,191.55339928303911,286.98189772547573
201805161230,421.48387618695813,9.2068547874736897,0.57365000134453381,0,17.939898933395448,1,53.028469365587164,0,0.69802297236194988,2,1.1915300504637572,0,27.219944267205296,-7.7775310627226553,-0.81982138548141326,0.70643621048633864,-1648.3348806282825,-1.31041333007324966E-002,108.98356737638245,199.25671969008596,298.52287542399802
201805161300,420.60428031510531,8.8417798677576815,0.61411498334782422,0,11.971328402167273,1,81.514923449684730,0,0.36404963685015468,1,1.8344966143885459,0,36.810198705649157,-12.487918807857913,-0.67712841679490321,0.73303059462904108,-2759.3502333617466,-7.82792982885847227E-003,109.38338096736179,199.98770644840087,299.61802679118119
201805161330,420.78514338073984,8.4886528850554832,0.68569520530401362,0,76.642689576337830,0,81.020843025185073,0,-0.57565505083923973,0,1.8261686497474550,0,35.493588749195183,-11.990411583450287,0.13841947585510325,0.77679065608516462,-512.75476152634531,-4.21254011092985145E-002,107.71358723291767,196.93479094843997,295.04420305819832
201805161400,420.25327848662215,8.7930880538776108,0.80789351091258443,0,148.56072961214795,0,76.360382320328938,0,-1.3664709205351748,1,1.7227056807351360,0,21.213868170177328,10.292704926119951,-0.40567572254599288,0.84464727512541382,-340.08951386695895,-6.35126903925940928E-002,110.88444301490314,202.73212661049212,303.72966829282450
201805161430,418.39903890835433,8.7001241655310650,0.93338835584480973,0,161.18980309980205,1,65.146257925170318,0,-3.7396552019041547,1,1.4718602696677650,0,33.509619199343788,-3.1219854649525463,-1.4068880835495183,0.91025662900629301,-392.29896887117513,-5.50600478562387058E-002,114.23979641365321,208.86678275848683,312.92050108323309
201805161500,417.72183305594933,8.6799356102280427,1.1516457757253109,0,251.34665480688329,0,106.24585695375984,1,-2.7766813074423133,0,2.4036727360299346,1,30.784016188877818,-0.67374005563951178,-0.51129454882678138,1.0135894455682657,-347.32980884667967,-6.21887308541801478E-002,115.27452555719600,210.75859764281725,315.75478451376745
201805161530,417.36883278903161,9.1129180697796706,1.1777287481629186,0,198.98007303121810,0,60.232692867002420,0,-1.2009472916932271,0,1.3643600416937658,0,27.855022008834123,14.369678832089228,-0.26536797108194293,1.0273050552348706,-456.83913852917271,-4.72814130364197643E-002,119.89337207934032,219.20332219084011,328.40652071699492
201805161600,417.93951151744449,9.5417224940435403,1.0865554298004347,0,232.70536001130773,0,60.817365073667048,0,-1.4165039012232281,0,1.3787997388606801,0,19.603485321360711,14.175389444175511,0.42770174154371260,0.98832579893700057,-347.86197883570998,-6.20935926147920814E-002,119.55910822683566,218.59218126047372,327.49092023884776
201805161630,417.66303467158076,9.9973329185269613,0.94951501167433583,0,198.99593753197064,0,62.515020310878946,0,-1.1124772778954082,0,1.4182135006929490,0,14.709372016830560,15.016295019352668,-0.20672126065383209,0.92506901163835653,-333.58642848973881,-6.47508356313854783E-002,102.84206699937931,188.02809826984179,281.70035441375393
201805161700,417.08705676929100,10.431175927176003,1.1658258789971958,0,278.39478929617547,0,73.255223058620643,0,-0.50607052865554181,0,1.6635361817357350,0,22.531717592587963,14.231739415651868,-0.42906674714220377,1.0270214005519891,-326.27765432671623,-6.62012850514456797E-002,115.99503591391378,212.07592036988950,317.72837400655158
201805161730,416.18917898018037,10.696517137334832,1.0039436948996376,0,276.43305888825051,0,125.40547866757748,0,1.7160908991798909,0,2.8499981743565428,0,17.199659828743791,8.6714932318796780,-0.66685971742091898,0.95453111676969160,-263.76475816288536,-8.18911523679032721E-002,107.17011384753422,195.94114826801288,293.55554525751563
201805161800,415.47809934279684,10.352077728624188,1.5220947372832747,0,391.77737709728109,0,118.65862872289070,0,-0.22932496364274613,0,2.6979872530854201,0,10.900851208301262,-11.229392986470748,-0.52711121485168566,1.1763714621136374,-348.29037395618116,-6.20172178594792997E-002,119.63737316628811,218.73527453111498,327.70530003327622
201805161830,415.35993704174734,10.304485085429922,1.1731850261201511,0,291.22319966066476,0,81.180892844290113,0,0.10065143103820517,0,1.8464660082896587,0,7.5243510464741039,-1.5491007469262368,-8.74794958285331076E-002,1.0334305878438570,-317.63667800714012,-6.80022223362834050E-002,113.98158948486595,208.39469814178753,312.21323230233725
201805161900,415.25473112912249,10.320465355328386,1.2130011383357686,0,292.97479094508225,0,101.69799193361730,0,0.88166869158176731,0,2.3144817917137757,0,12.969725743518140,0.51875508865424480,-7.77248332003673825E-002,1.0519226784958968,-332.98026054139746,-6.48687101297844154E-002,119.13785525427858,217.82199647489463,326.33704308400706
201805161930,415.11370513684744,10.092900850761403,1.3248576380797072,0,357.11195198540531,0,112.30551430772275,0,-5.50471906025542523E-002,0,2.5559754799822745,0,0.72552889741808013,-7.3852315655191694,-0.10416321157959162,1.0994393831401643,-311.85397840881330,-6.92631856428789494E-002,117.98649141366879,215.71693616559702,323.18327914846776
201805162000,415.21059149702921,10.177431998158021,1.2579372691636059,0,367.70379605916622,0,117.34444476713915,0,1.6799923033527655,0,2.6718604172320677,0,9.9694299896546905,2.7377333245756366,7.14476996632208428E-002,1.0721805787802978,-280.89672352040066,-7.68965893560209501E-002,115.96868436197521,212.02774132854935,317.65619302325325
201805162030,415.27613563836343,9.8842869083831779,0.81371752212217641,0,156.41194436019029,0,97.804224985488787,0,1.9716499565838470,0,2.2262150431239220,0,-7.2288932607436225,-9.5062795205601365,4.83806090580533518E-002,0.86187680870277827,-342.94792432182430,-6.29833233215035815E-002,118.77913159066213,217.16613520875927,325.35444339376591
201805162100,415.45235559230878,9.7350798071033626,0.70408330379325612,0,196.46938081266202,0,159.15220331454256,1,1.4396828210588213,0,3.6248476305115789,1,13.614501735263735,-4.8242499209998497,0.12976945749266947,0.80263503096557820,-220.46855883654425,-9.79731536958713262E-002,110.72930183411501,202.44847905226962,303.30471256325478
201805162130,415.89998822841511,9.6319962772160963,0.39623865544557252,0,10.906199380080965,0,33.409940860160944,0,1.3529596290336863,1,0.76043085998872562,0,-14.945038939368455,-3.3429921627916963,0.33040898265490676,0.60140864179639142,-1670.7507085690731,-1.29283201193429280E-002,111.25915738220975,203.41722398294647,304.75606899784765
201805162200,415.01194717130414,10.355765681766185,0.33712424517475909,0,26.702886969216635,1,-9.3361435095186316,2,7.3165685646366407,2,-0.21247862209562085,2,-1.8528416455396126,23.481966888296625,-0.65571484883138609,0.55471505912170693,-535.54685121407601,-4.03326057300741336E-002,116.48393458414904,212.96978306531304,319.06754320740515
201805162230,415.44782325219927,10.931946156058967,0.59464684223849118,0,106.89536699021214,0,58.491487801542668,1,1.0793579011930614,0,1.3314822403023512,1,4.8444747290669730,18.675756867840807,0.32160694732138956,0.73707523014347476,-313.88546121518556,-6.88149107524034936E-002,112.67708269696978,206.00964368241247,308.63998610836762
201805162300,426.91454060454834,11.789228510590194,0.33477564733499321,1,68.574066076222309,1,249.75998664080964,1,-27.285432653804982,1,5.6743823736243222,1,-43.545519276710067,28.039393133672998,8.5207842306641979,0.55117669259979019,-204.67091671826864,-0.10553526776709851,106.74508928837442,195.16406781923817,292.39133714265353
201805162330,418.66997807848583,12.271641934107356,0.11845809945991879,0,-10.075445988422736,1,34.335722603228994,1,6.7753075253744219,1,0.77874455936293585,1,-38.718272793970378,15.906651532761533,-6.1656069152743624,0.32685279946778062,290.58410908436491,7.43330392981981780E-002,80.367977331093982,146.93829461294823,220.14034099316922
201805170000,417.29461947185962,11.856546530292993,0.10413404717706359,0,-10.286100317582289,1,30.857010874963045,0,1.3457135010472452,1,0.69957595588589228,0,-8.7252594336384135,-13.719955989570893,-1.0306275893236814,0.30612102877404029,233.92767145116281,9.23362331014757481E-002,111.87204193323737,204.53777241172693,306.43485473481888
